Regional Weather Roundup
Issued by NWS Goodland, KS

Home | Current Version | Previous Version | Graphics & Text | Print | Product List | Glossary On
Versions: 1 2 3 4 5 6 7 8 9 10 11 12 13 14 15 16 17 18 19 20 21 22 23 24 25 26 27 28 29 30 31 32 33 34 35 36 37 38 39 40 41 42 43 44 45 46 47 48 49 50
000
ASUS43 KGLD 221059
RWRGLD

GOODLAND FORECAST AREA HOURLY WEATHER ROUNDUP
NATIONAL WEATHER SERVICE GOODLAND KS
500 AM MDT FRI AUG 22 2014

...OFFICIAL OBSERVATIONS...

CITY           SKY/WX    TMP DP  RH WIND       PRES   REMARKS
GOODLAND KS    MOCLDY    65  61  87 NW3       30.01R
HILL CITY KS   CLEAR     68  65  90 CALM      29.91R
IMPERIAL NEB   PTCLDY    70  65  84 NW5       30.03R
MCCOOK NEB     CLEAR     67  65  93 N7        29.95R FOG
AKRON CO       LGT RAIN  61  59  93 N8        30.13R
BURLINGTON CO  MOCLDY    68  54  60 NW17      30.06R
LIMON CO       MOCLDY    59  56  89 N9        30.14S
$$

...UNOFFICIAL OBSERVATIONS...

CITY           SKY/WX    TMP DP  RH WIND       PRES   REMARKS
COLBY KS       CLEAR     70  70 100 CALM      29.98R FOG
LENORA KS        N/A     67  32  27 CALM        N/A
NORTON KS      CLEAR     68  64  88 CALM      29.92R FOG
WAKEENEY KS      N/A     70  66  85 MISG        N/A
KIT CARSON CO    N/A     70  55  58 MISG        N/A
YUMA CO          N/A     64  58  81 SW16        N/A
$$


USA.gov is the U.S. government's official web portal to all federal, state and local government web resources and services.